Погода в Арзгире

Россия / Ставропольский край     45°22′12″N   44°13′40″E
темп.,
°C
ветер,
м/с
пор.,
м/с
влажн.,
%
обл.,
%
осадки,
мм/ч
давл.,
гПа
погр.,
м
14 мая, пт
пт1400:00+15юв44665 0.0 101458
03:00+13юв337819 0.0 101432
06:00+14вюв36766 0.0 1014158
09:00+21юв45524 0.0 1014470
12:00+27вюв56420 0.0 1013864
15:00+31юв89300 0.0 10121441
18:00+27юв814340 0.0 1012589
21:00+20вюв615510 0.0 1013337
15 мая, сб
сб1500:00+18вюв616460 0.0 1012347
03:00+16вюв412440 0.0 1012249
06:00+16вюв41049100 0.0 1013249
09:00+23юв463654 0.0 1013565
12:00+29юв67287 0.0 10131159
15:00+31вюв78240 0.0 10111688
18:00+27вюв814250 0.0 1012480
21:00+20вюв5143783 0.0 1013296
16 мая, вс
вс1600:00+18вюв51444100 0.0 1012278
03:00+15в4135599 0.0 1012260
06:00+17вюв6155598 0.0 1011396
09:00+24вюв91532100 0.0 1011860
12:00+30юв11142012 0.0 10091767
15:00+31юв101320100 0.0 10082302
18:00+26в9153420 0.0 1007607
21:00+21в91942100 0.0 1008559
17 мая, пн
пн1700:00+19в820448 0.0 1007585
03:00+19вюв7184197 0.0 1006548
06:00+19вюв8184610 0.0 1006620
09:00+25юв101629100 0.0 1006966
12:00+30юв101322100 0.0 10061551
15:00+30вюв1012200 0.0 10051798
18:00+26в7113493 0.0 1007464
21:00+19всв334213 0.0 100935
18 мая, вт
вт1800:00+17в234389 0.0 100927
03:00+16ссз2249100 0.0 100911
06:00+17сз6117889 0.1 1010361
09:00+21сз8964100 0.3 1011854
12:00+25сз884841 0.5 10111677
15:00+26сз8849100 0.5 10111767
18:00+22зсз8116399 0.0 1011780
21:00+19зсз51181100 0.0 1013336